STARLINK-32269, 60377

Orbit data source: Space-Track

STARLINK-32269, 60377 is a payload satellite owned by SpaceX/Seattle (US) in LEO that was launched on Sun, 04 Aug 2024 UTC via an FALCON 9 launch vehicle from the Air Force Western Test Range (AFWTR). Payload-class satellites include a variety of spacecraft equipped with specific instruments for various scientific and technological missions. These include communications satellites like Starlink; space stations such as the ISS; scientific satellites like the Hubble; Earth observation satellites from companies like Planet Labs, Umbra, and HawkEye 360; GPS; miniature CubeSats for education and research; and military/defense satellites.

Loading next visibility...
Identifier
60377, 2024-138Y
Orbit
LEO
Country
Flag of USUS
Related business
Manufacturer
SpaceX/Seattle
Mission
Operational Commercial Communications
Bus & Motor
STARLINK V2M, Unknown motor
Mass
730 kg wet, ~700 kg dry
Launch date (UTC)
2024-08-04 (1 year ago)
Launch vehicle
FALCON 9
Launch site
Air Force Western Test Range (AFWTR)
Object type
Payload
Rocket body
Debris
Shape & HBR
Box + 2 Pan, 17.7 m
Radar Cross Section
33.884 m², Large (>1 m²)

Expand to show TLE details & history
Last TLE update: 16 hours ago

TLE from 16 hours ago
0 STARLINK-32269
1 60377U 24138Y   25291.27733411 -.00000010  00000-0  11789-4 0  9990
2 60377  53.1622 251.0909 0001415  89.9310 270.1853 15.30186273 68827
Epoch: 2025-10-18T06:39Z
TLE epoch observation values (Epoch: 2025-10-18T06:39:21.667Z)
Latitude
Longitude
124.23997°
Altitude
476.153 km
Speed
7.629 km/s
True Right ascension
16h 44m 21s
True Declination
0° 00' 00"
Sunlit
Object was in daylight at epoch
Visualization orbit readout
Latitude
Unknown
Longitude
Unknown
Altitude
Unknown
Speed
Unknown
Apparent Right ascension
Unknown
Apparent Declination
Unknown
Sunlit
N/A
Visualization observer readout
Local Sidereal Time
17:03:33
Azimuth
Unknown
Elevation
Unknown
Doppler factor
Unknown
Orbital elements
Apogee altitude
476.482 km
Perigee altitude
474.542 km
Semi-major axis
6,853.649 km
Eccentricity
0.00014
Inclination
53.1622°
RAAN
251.0909°
Arg. of periapsis
89.931°
True anomaly
270.16909°
Mean anomaly
270.1853°
Eccentric anomaly
270.17719°
Mean motion
3.82525 °/min
Orbital period
94.11 mins
BSTAR
0.000011789
Loading maneuver chart data...
Computing Atmospheric mass density...
Loading historical data...
Loading historical data...
Loading historical data...
Loading historical data...
Loading historical data...
Loading historical data...
Loading historical data...

Documentation

Showing up to 5 results
|